Location: Unspecified
(0.0000°N, 0.0000°E)
Time: 18:18:12
(UTC+00:00)

STARLINK-11698 [DTC] - Visible Passes

Search period start: 09 June 2026 00:00
Search period end: 19 June 2026 00:00
Orbit: 352 x 360 km, 43.0° (Epoch: 9 June)

Date Brightness Start Highest point End Pass type
(mag) Time Alt. Az. Time Alt. Az. Time Alt. Az.
9 Jun ? 19:18:03 10° SSW 19:18:43 15° SSW 19:18:43 15° SSW visible
10 Jun ? 19:45:12 10° WSW 19:47:16 24° WNW 19:47:16 24° WNW visible
11 Jun ? 18:35:27 10° SW 18:38:22 63° SE 18:41:17 10° NE visible
12 Jun ? 19:02:27 10° W 19:04:32 18° NW 19:06:37 10° N visible
14 Jun ? 05:16:32 10° NNW 05:19:19 41° NE 05:22:07 10° ESE visible
15 Jun ? 04:08:11 10° NNE 04:08:47 10° NE 04:09:24 10° ENE visible
16 Jun ? 04:33:41 61° NE 04:33:43 61° NE 04:36:35 10° SE visible
17 Jun ? 04:59:59 12° S 04:59:59 12° S 05:00:22 10° S visible
